Catalina King — WDC3343 — position and weather

sailwx.info

Track history (hours):
 
Tides and Currents Weather Stations Pressure Air Temp Water Temp Dewpoint Dewpoint Depression Visibility Wind Speed Wind Dir Waves Ship Positions

Catalina King

Owner: CATALINA CLASSIC CRUISES, INC., SAN DIEGO, CA. More information available from US FCC via Universal Licensing System and Coast Guard Vessel Documentation Center.

Last reported at 2018-Jun-17 21:52 UTC. Time now 2018-Jun-21 01:02 UTC.
Position N 33°45' W 118°12'.

Length 39 m; draft 3.3 m.

Type: Ship. MMSI: 367006280.

Date/timePositionNaut miles runAvg speedWind from/ knotsBaromVisibWave heightAir tempDewpointWater temp
2018-Jun-17 21:52N 33°45' W 118°12'2 4.8
2018-Jun-17 21:30N 33°44' W 118°11'612.1
2018-Jun-17 21:00N 33°38' W 118°13'612.5
2018-Jun-17 20:30N 33°32' W 118°17'612.1
2018-Jun-17 19:58N 33°27' W 118°20'3 4.4
2018-Jun-17 19:19N 33°24' W 118°22'3 8.7
2018-Jun-17 18:59N 33°27' W 118°20'612.0
2018-Jun-17 18:30N 33°32' W 118°17'611.9
2018-Jun-17 18:00N 33°37' W 118°14'612.0
2018-Jun-17 17:30N 33°43' W 118°11'2 5.0
2018-Jun-17 17:01N 33°45' W 118°12'0 0.0
2018-Jun-17 16:30N 33°45' W 118°12'0 0.0
2018-Jun-17 16:00N 33°45' W 118°12'0 0.0
2018-Jun-17 01:49N 33°45' W 118°12'1 2.7
2018-Jun-17 01:30N 33°45' W 118°11'611.6
2018-Jun-17 01:00N 33°39' W 118°12'612.1
2018-Jun-17 00:29N 33°33' W 118°15'611.9
2018-Jun-16 23:59N 33°28' W 118°18'1 1.0
2018-Jun-16 22:41N 33°27' W 118°19'212.1
2018-Jun-16 22:30N 33°29' W 118°18'612.1
2018-Jun-16 22:00N 33°34' W 118°15'611.7
2018-Jun-16 21:30N 33°39' W 118°13'611.0
2018-Jun-16 21:00N 33°45' W 118°11'1 1.3
2018-Jun-16 20:30N 33°45' W 118°12'0 0.0
2018-Jun-16 20:00N 33°45' W 118°12'0 0.0
2018-Jun-16 19:29N 33°45' W 118°12'0 0.0
2018-Jun-16 19:00N 33°45' W 118°12'0 0.0
2018-Jun-15 19:00N 33°45' W 118°12'5 9.8
2018-Jun-15 18:30N 33°40' W 118°12'612.8
2018-Jun-15 18:00N 33°34' W 118°15'612.6
2018-Jun-15 17:30N 33°29' W 118°18'712.2
2018-Jun-15 16:58N 33°23' W 118°21'0 0.3
2018-Jun-15 16:29N 33°23' W 118°21'612.2
2018-Jun-15 16:00N 33°28' W 118°19'611.5
2018-Jun-15 15:30N 33°34' W 118°16'611.5
2018-Jun-15 15:00N 33°39' W 118°13'611.6
2018-Jun-15 14:30N 33°44' W 118°11'1 2.0
2018-Jun-15 13:57N 33°45' W 118°12'  
2018-Jun-12 16:30N 33°45' W 118°12'0 0.0
2018-Jun-10 20:45N 33°45' W 118°12'1 5.7
2018-Jun-10 20:30N 33°44' W 118°11'612.1
2018-Jun-10 20:00N 33°38' W 118°13'612.5
2018-Jun-10 19:30N 33°33' W 118°16'712.6
2018-Jun-10 18:59N 33°27' W 118°20'3 5.2
2018-Jun-10 18:23N 33°24' W 118°22'3 6.8
2018-Jun-10 18:00N 33°27' W 118°21'611.9
2018-Jun-10 17:30N 33°32' W 118°18'611.8
2018-Jun-10 17:00N 33°37' W 118°14'611.7
2018-Jun-10 16:30N 33°42' W 118°11'3 5.3
2018-Jun-10 15:59N 33°45' W 118°12'0 0.0
2018-Jun-10 15:27N 33°45' W 118°12'0 0.0
2018-Jun-10 15:00N 33°45' W 118°12'0 0.0
2018-Jun-10 02:44N 33°45' W 118°12'0 0.0
2018-Jun-10 02:30N 33°45' W 118°12'1 2.6
2018-Jun-10 02:00N 33°45' W 118°10'1 1.5
2018-Jun-10 01:30N 33°44' W 118°09'2 3.2
2018-Jun-10 01:00N 33°44' W 118°11'2 3.1
2018-Jun-10 00:30N 33°44' W 118°09'1 1.1
2018-Jun-10 00:00N 33°44' W 118°09'2 3.4
2018-Jun-09 23:30N 33°45' W 118°10'1 2.7
2018-Jun-09 23:00N 33°45' W 118°12'0 0.0
2018-Jun-09 22:30N 33°45' W 118°12'0 0.0
2018-Jun-09 22:00N 33°45' W 118°12'0 0.0
2018-Jun-08 22:31N 33°45' W 118°12'0 0.0
2018-Jun-08 22:30N 33°45' W 118°12'0 0.0
2018-Jun-08 22:00N 33°45' W 118°12'  
Track history (hours):
 
Tides and Currents Weather Stations Pressure Air Temp Water Temp Dewpoint Dewpoint Depression Visibility Wind Speed Wind Dir Waves Ship Positions

Catalina King

Owner: CATALINA CLASSIC CRUISES, INC., SAN DIEGO, CA. More information available from US FCC via Universal Licensing System and Coast Guard Vessel Documentation Center.

Last reported at 2018-Jun-17 21:52 UTC. Time now 2018-Jun-21 01:02 UTC.
Position N 33°45' W 118°12'.

Length 39 m; draft 3.3 m.

Type: Ship. MMSI: 367006280.

Date/timePositionNaut miles runAvg speedWind from/ knotsBaromVisibWave heightAir tempDewpointWater temp
2018-Jun-17 21:52N 33°45' W 118°12'2 4.8
2018-Jun-17 21:30N 33°44' W 118°11'612.1
2018-Jun-17 21:00N 33°38' W 118°13'612.5
2018-Jun-17 20:30N 33°32' W 118°17'612.1
2018-Jun-17 19:58N 33°27' W 118°20'3 4.4
2018-Jun-17 19:19N 33°24' W 118°22'3 8.7
2018-Jun-17 18:59N 33°27' W 118°20'612.0
2018-Jun-17 18:30N 33°32' W 118°17'611.9
2018-Jun-17 18:00N 33°37' W 118°14'612.0
2018-Jun-17 17:30N 33°43' W 118°11'2 5.0
2018-Jun-17 17:01N 33°45' W 118°12'0 0.0
2018-Jun-17 16:30N 33°45' W 118°12'0 0.0
2018-Jun-17 16:00N 33°45' W 118°12'0 0.0
2018-Jun-17 01:49N 33°45' W 118°12'1 2.7
2018-Jun-17 01:30N 33°45' W 118°11'611.6
2018-Jun-17 01:00N 33°39' W 118°12'612.1
2018-Jun-17 00:29N 33°33' W 118°15'611.9
2018-Jun-16 23:59N 33°28' W 118°18'1 1.0
2018-Jun-16 22:41N 33°27' W 118°19'212.1
2018-Jun-16 22:30N 33°29' W 118°18'612.1
2018-Jun-16 22:00N 33°34' W 118°15'611.7
2018-Jun-16 21:30N 33°39' W 118°13'611.0
2018-Jun-16 21:00N 33°45' W 118°11'1 1.3
2018-Jun-16 20:30N 33°45' W 118°12'0 0.0
2018-Jun-16 20:00N 33°45' W 118°12'0 0.0
2018-Jun-16 19:29N 33°45' W 118°12'0 0.0
2018-Jun-16 19:00N 33°45' W 118°12'0 0.0
2018-Jun-15 19:00N 33°45' W 118°12'5 9.8
2018-Jun-15 18:30N 33°40' W 118°12'612.8
2018-Jun-15 18:00N 33°34' W 118°15'612.6
2018-Jun-15 17:30N 33°29' W 118°18'712.2
2018-Jun-15 16:58N 33°23' W 118°21'0 0.3
2018-Jun-15 16:29N 33°23' W 118°21'612.2
2018-Jun-15 16:00N 33°28' W 118°19'611.5
2018-Jun-15 15:30N 33°34' W 118°16'611.5
2018-Jun-15 15:00N 33°39' W 118°13'611.6
2018-Jun-15 14:30N 33°44' W 118°11'1 2.0
2018-Jun-15 13:57N 33°45' W 118°12'  
2018-Jun-12 16:30N 33°45' W 118°12'0 0.0
2018-Jun-10 20:45N 33°45' W 118°12'1 5.7
2018-Jun-10 20:30N 33°44' W 118°11'612.1
2018-Jun-10 20:00N 33°38' W 118°13'612.5
2018-Jun-10 19:30N 33°33' W 118°16'712.6
2018-Jun-10 18:59N 33°27' W 118°20'3 5.2
2018-Jun-10 18:23N 33°24' W 118°22'3 6.8
2018-Jun-10 18:00N 33°27' W 118°21'611.9
2018-Jun-10 17:30N 33°32' W 118°18'611.8
2018-Jun-10 17:00N 33°37' W 118°14'611.7
2018-Jun-10 16:30N 33°42' W 118°11'3 5.3
2018-Jun-10 15:59N 33°45' W 118°12'0 0.0
2018-Jun-10 15:27N 33°45' W 118°12'0 0.0
2018-Jun-10 15:00N 33°45' W 118°12'0 0.0
2018-Jun-10 02:44N 33°45' W 118°12'0 0.0
2018-Jun-10 02:30N 33°45' W 118°12'1 2.6
2018-Jun-10 02:00N 33°45' W 118°10'1 1.5
2018-Jun-10 01:30N 33°44' W 118°09'2 3.2
2018-Jun-10 01:00N 33°44' W 118°11'2 3.1
2018-Jun-10 00:30N 33°44' W 118°09'1 1.1
2018-Jun-10 00:00N 33°44' W 118°09'2 3.4
2018-Jun-09 23:30N 33°45' W 118°10'1 2.7
2018-Jun-09 23:00N 33°45' W 118°12'0 0.0
2018-Jun-09 22:30N 33°45' W 118°12'0 0.0
2018-Jun-09 22:00N 33°45' W 118°12'0 0.0
2018-Jun-08 22:31N 33°45' W 118°12'0 0.0
2018-Jun-08 22:30N 33°45' W 118°12'0 0.0
2018-Jun-08 22:00N 33°45' W 118°12'  

Dump ship's entire track history